When you browse on this site, cookies collect data to enhance your experience and personalize the content and advertising you see.
Visit our Privacy Policy to learn more. By continuing to use the site, you agree to this use of cookies and data.
  • In Czech Republic
  • List of Countries
  • For 7 days
  • Water Temperature
  • Satellite Maps
  • Weather Map
  • Weather Widgets
  • user-avatar
    Login

    Hourly Weather Bansko

    Today, 23 January, Wednesday

    Time Temperature Precipitation Wind Pressure Humidity
    00:00 +4°C° 0.1 mm 3 mps 712 mmHg 90%
    01:00 +4°C° 0.1 mm 3 mps 712 mmHg 91%
    02:00 +4°C° 0.1 mm 3 mps 712 mmHg 92%
    03:00 +5°C° 0 mm 2 mps 711 mmHg 92%
    04:00 +5°C° 0 mm 2 mps 711 mmHg 92%
    05:00 +4°C° 0 mm 2 mps 711 mmHg 92%
    06:00 +4°C° 0 mm 2 mps 711 mmHg 92%
    07:00 +4°C° 0 mm 2 mps 710 mmHg 91%
    08:00 +4°C° 0 mm 2 mps 710 mmHg 91%
    09:00 +5°C° 0 mm 2 mps 710 mmHg 89%
    10:00 +6°C° 0 mm 2 mps 710 mmHg 88%
    11:00 +7°C° 0 mm 2 mps 710 mmHg 86%
    12:00 +8°C° 0.1 mm 2 mps 710 mmHg 85%
    13:00 +8°C° 0.1 mm 2 mps 709 mmHg 84%
    14:00 +8°C° 0.1 mm 2 mps 709 mmHg 83%
    15:00 +8°C° 0.3 mm 2 mps 708 mmHg 85%
    16:00 +7°C° 0.3 mm 2 mps 708 mmHg 87%
    17:00 +6°C° 0.3 mm 2 mps 707 mmHg 89%
    18:00 +6°C° 0.4 mm 2 mps 707 mmHg 89%
    19:00 +6°C° 0.4 mm 2 mps 707 mmHg 90%
    20:00 +5°C° 0.4 mm 3 mps 706 mmHg 90%
    21:00 +6°C° 0.1 mm 2 mps 706 mmHg 91%
    22:00 +6°C° 0.1 mm 2 mps 706 mmHg 91%
    23:00 +6°C° 0.1 mm 2 mps 705 mmHg 92%

    Tomorrow, 24 January, Thursday

    Time Temperature Precipitation Wind Pressure Humidity
    00:00 +6°C° 0.1 mm 2 mps 705 mmHg 92%
    01:00 +6°C° 0.1 mm 2 mps 705 mmHg 92%
    02:00 +6°C° 0.1 mm 2 mps 704 mmHg 92%
    03:00 +7°C° 0.2 mm 1 mps 703 mmHg 92%
    04:00 +6°C° 0.2 mm 1 mps 703 mmHg 91%
    05:00 +6°C° 0.2 mm 1 mps 702 mmHg 91%
    06:00 +6°C° 0.2 mm 1 mps 702 mmHg 90%
    07:00 +6°C° 0.2 mm 1 mps 702 mmHg 89%
    08:00 +6°C° 0.2 mm 1 mps 702 mmHg 88%
    09:00 +7°C° 0.3 mm 1 mps 702 mmHg 87%
    10:00 +8°C° 0.3 mm 1 mps 702 mmHg 87%
    11:00 +7°C° 0.3 mm 2 mps 702 mmHg 86%
    12:00 +9°C° 0.6 mm 1 mps 702 mmHg 85%
    13:00 +9°C° 0.6 mm 1 mps 702 mmHg 85%
    14:00 +9°C° 0.6 mm 1 mps 702 mmHg 84%
    15:00 +7°C° 1.4 mm 2 mps 702 mmHg 87%
    16:00 +6°C° 1.4 mm 2 mps 702 mmHg 90%
    17:00 +4°C° 1.4 mm 3 mps 703 mmHg 92%
    18:00 +4°C° 0.1 mm 2 mps 703 mmHg 92%
    19:00 +4°C° 0.1 mm 2 mps 704 mmHg 92%
    20:00 +3°C° 0.1 mm 2 mps 704 mmHg 92%
    21:00 +4°C° 0 mm 1 mps 705 mmHg 91%
    22:00 +3°C° 0 mm 1 mps 705 mmHg 90%
    23:00 +3°C° 0 mm 1 mps 705 mmHg 89%

    Day after tomorrow, 25 January, Friday

    Time Temperature Precipitation Wind Pressure Humidity
    00:00 +3°C° 0 mm 1 mps 705 mmHg 87%
    01:00 +2°C° 0 mm 2 mps 705 mmHg 85%
    02:00 +2°C° 0 mm 2 mps 705 mmHg 84%
    03:00 +2°C° 1.3 mm 2 mps 704 mmHg 86%
    04:00 +3°C° 1.3 mm 2 mps 704 mmHg 88%
    05:00 +2°C° 1.3 mm 3 mps 703 mmHg 90%
    06:00 +3°C° 0.8 mm 2 mps 704 mmHg 91%
    07:00 +4°C° 0.8 mm 1 mps 704 mmHg 91%
    08:00 +4°C° 0.8 mm 1 mps 704 mmHg 91%
    09:00 +5°C° 0.1 mm 1 mps 704 mmHg 92%
    10:00 +5°C° 0.1 mm 1 mps 705 mmHg 93%
    11:00 +6°C° 0.1 mm 1 mps 705 mmHg 94%
    12:00 +6°C° 0.1 mm 1 mps 705 mmHg 92%
    13:00 +7°C° 0.1 mm 1 mps 705 mmHg 89%
    14:00 +7°C° 0.1 mm 1 mps 705 mmHg 87%
    15:00 +6°C° 0 mm 1 mps 705 mmHg 88%
    16:00 +5°C° 0 mm 2 mps 704 mmHg 89%
    17:00 +4°C° 0 mm 2 mps 704 mmHg 90%
    18:00 +2°C° 0.7 mm 3 mps 704 mmHg 91%
    19:00 +2°C° 0.7 mm 3 mps 704 mmHg 91%
    20:00 +1°C° 0.7 mm 3 mps 704 mmHg 92%
    21:00 +1°C° 0.6 mm 3 mps 705 mmHg 91%
    22:00 +1°C° 0.6 mm 3 mps 705 mmHg 91%
    23:00 +1°C° 0.6 mm 3 mps 705 mmHg 90%

    26 January, Saturday

    Time Temperature Precipitation Wind Pressure Humidity
    00:00 0°C° 0.2 mm 3 mps 705 mmHg 90%
    01:00 0°C° 0.2 mm 3 mps 705 mmHg 90%
    02:00 +1°C° 0.2 mm 2 mps 705 mmHg 91%
    03:00 +1°C° 0.1 mm 2 mps 705 mmHg 90%
    04:00 -1°C° 0.1 mm 2 mps 705 mmHg 90%
    05:00 -1°C° 0.1 mm 2 mps 705 mmHg 90%
    06:00 -1°C° 0 mm 2 mps 705 mmHg 89%
    07:00 -1°C° 0 mm 2 mps 706 mmHg 89%
    08:00 -1°C° 0 mm 2 mps 706 mmHg 88%
    09:00 0°C° 0.2 mm 3 mps 706 mmHg 87%
    10:00 0°C° 0.2 mm 3 mps 707 mmHg 86%
    11:00 +1°C° 0.2 mm 3 mps 707 mmHg 85%
    12:00 +1°C° 0.4 mm 3 mps 707 mmHg 85%
    13:00 +2°C° 0.4 mm 3 mps 707 mmHg 85%
    14:00 +2°C° 0.4 mm 3 mps 707 mmHg 86%
    15:00 +2°C° 0.3 mm 3 mps 707 mmHg 87%
    16:00 +1°C° 0.3 mm 3 mps 707 mmHg 88%
    17:00 +2°C° 0.3 mm 2 mps 707 mmHg 89%
    18:00 +2°C° 0.3 mm 2 mps 708 mmHg 89%
    19:00 +2°C° 0.3 mm 2 mps 708 mmHg 90%
    20:00 +1°C° 0.3 mm 2 mps 708 mmHg 90%
    21:00 +1°C° 0.2 mm 2 mps 709 mmHg 90%
    22:00 +1°C° 0.2 mm 2 mps 709 mmHg 90%
    23:00 -1°C° 0.2 mm 2 mps 709 mmHg 89%

    27 January, Sunday

    Time Temperature Precipitation Wind Pressure Humidity
    00:00 -1°C° 0.1 mm 2 mps 709 mmHg 89%
    01:00 -1°C° 0.1 mm 2 mps 709 mmHg 89%
    02:00 -1°C° 0.1 mm 2 mps 709 mmHg 89%
    03:00 +1°C° 0.1 mm 1 mps 709 mmHg 88%
    04:00 +1°C° 0.1 mm 1 mps 709 mmHg 88%
    05:00 +1°C° 0.1 mm 1 mps 708 mmHg 88%
    06:00 +1°C° 0.1 mm 1 mps 709 mmHg 88%
    07:00 +1°C° 0.1 mm 1 mps 709 mmHg 88%
    08:00 +1°C° 0.1 mm 1 mps 709 mmHg 87%
    09:00 +2°C° 0.1 mm 1 mps 709 mmHg 85%
    10:00 +3°C° 0.1 mm 1 mps 709 mmHg 84%
    11:00 +4°C° 0.1 mm 1 mps 709 mmHg 82%
    12:00 +4°C° 0.1 mm 1 mps 709 mmHg 82%
    13:00 +5°C° 0.1 mm 1 mps 709 mmHg 83%
    14:00 +5°C° 0.1 mm 1 mps 709 mmHg 83%
    15:00 +5°C° 0.1 mm 1 mps 709 mmHg 85%
    16:00 +4°C° 0.1 mm 1 mps 709 mmHg 86%
    17:00 +4°C° 0.1 mm 1 mps 709 mmHg 88%
    18:00 +3°C° 0 mm 1 mps 709 mmHg 88%
    19:00 +1°C° 0 mm 0 mps 709 mmHg 88%
    20:00 0°C° 0 mm 0 mps 710 mmHg 89%
    21:00 0°C° 0 mm 0 mps 710 mmHg 87%
    22:00 0°C° 0 mm 0 mps 710 mmHg 86%
    23:00 +1°C° 0 mm 1 mps 711 mmHg 85%

    28 January, Monday

    Time Temperature Precipitation Wind Pressure Humidity
    00:00 0°C° 0 mm 1 mps 711 mmHg 85%
    01:00 0°C° 0 mm 1 mps 711 mmHg 84%
    02:00 0°C° 0 mm 1 mps 711 mmHg 83%
    03:00 0°C° 0 mm 1 mps 712 mmHg 83%
    04:00 0°C° 0 mm 1 mps 712 mmHg 82%
    05:00 0°C° 0 mm 1 mps 712 mmHg 82%
    06:00 0°C° 0 mm 1 mps 712 mmHg 81%
    07:00 0°C° 0 mm 1 mps 713 mmHg 80%
    08:00 -2°C° 0 mm 2 mps 713 mmHg 79%
    09:00 +1°C° 0 mm 2 mps 713 mmHg 77%
    10:00 +3°C° 0 mm 2 mps 714 mmHg 76%
    11:00 +4°C° 0 mm 2 mps 714 mmHg 74%
    12:00 +5°C° 0 mm 2 mps 714 mmHg 75%
    13:00 +5°C° 0 mm 2 mps 714 mmHg 76%
    14:00 +5°C° 0 mm 3 mps 714 mmHg 77%
    15:00 +5°C° 0 mm 2 mps 714 mmHg 79%
    16:00 +5°C° 0 mm 2 mps 714 mmHg 80%
    17:00 +4°C° 0 mm 2 mps 714 mmHg 82%
    18:00 +4°C° 0.1 mm 2 mps 714 mmHg 83%
    19:00 +4°C° 0.1 mm 1 mps 715 mmHg 83%
    20:00 +4°C° 0.1 mm 1 mps 715 mmHg 84%
    21:00 +4°C° 0.1 mm 1 mps 715 mmHg 84%
    22:00 +3°C° 0.1 mm 2 mps 715 mmHg 84%
    23:00 +3°C° 0.1 mm 2 mps 716 mmHg 84%
    Show more